Regional Weather Roundup
Issued by NWS Burlington, VT

Home | Current Version | Previous Version | Text Only | Print | Product List | Glossary On
Versions: 1 2 3 4 5 6 7 8 9 10 11 12 13 14 15 16 17 18 19 20 21 22 23 24 25 26 27 28 29 30 31 32 33 34 35 36 37 38 39 40 41 42 43 44 45 46 47 48 49 50
000
ASUS41 KBTV 031530
RWRBTV
VERMONT REGIONAL WEATHER ROUNDUP
NATIONAL WEATHER SERVICE BURLINGTON VT
1000 AM EST TUE MAR 03 2015

NOTE: "FAIR" INDICATES FEW OR NO CLOUDS BELOW 12,000 FEET WITH NO
SIGNIFICANT WEATHER AND/OR OBSTRUCTIONS TO VISIBILITY.

* THESE REPORTS ARE NOT UNDER NWS QUALITY CONTROL AND/OR DO NOT
  REPORT WEATHER SUCH AS PRECIPITATION AND FOG.

VTZ001>019-031600-
_____VERMONT_____


CITY           SKY/WX    TMP DP  RH WIND       PRES   REMARKS
BURLINGTON     MOSUNNY   19  -1  41 SE6       30.35F
MONTPELIER     SUNNY     15  -2  46 E3        30.32S
MORRISVILLE    SUNNY     19  -1  41 CALM      30.32F
ST. JOHNSBURY*   N/A     15  -3  44 MISG      30.31F
LYNDONVILLE*   FAIR      16  -7  35 CALM      30.30S
MIDDLEBURY*    FAIR      20   0  41 CALM      30.33F
RUTLAND*       SUNNY     19   1  45 CALM      30.32F
SPRINGFIELD    SUNNY     19  -2  39 CALM      30.35F
HIGHGATE*      FAIR      17  -1  44 CALM      30.34F
NEWPORT*       FAIR      15  -3  44 E5        30.29F
BENNINGTON     PTSUNNY   17   5  59 CALM      30.33F
GALLUP MILLS*    N/A     16 N/A N/A MISG        N/A
MT. MANSFIELD*   N/A      9 N/A N/A CALM        N/A

_____LAKE CHAMPLAIN_____


CITY           SKY/WX    TMP DP  RH WIND       PRES   REMARKS
BURTON ISLAND*   N/A     12   5  73 S7          N/A
COLCHESTER RF*   N/A     18   7  62 S12         N/A  WCI   5
DIAMOND ISL*     N/A     18   3  53 SW1         N/A

$$

NYZ007-026>031-035-052-083-031600-
_____NORTHERN NEW YORK_____


CITY           SKY/WX    TMP DP  RH WIND       PRES   REMARKS
PLATTSBURGH    MIX PCPN  15   4  61 SE10      30.34F WCI   2
SARANAC LAKE   SUNNY     10   4  76 S3        30.19F
MASSENA        SUNNY     17   4  56 SW7       30.32F
OGDENSBURG*    SUNNY     21   9  58 SW10      30.29F WCI  10
POTSDAM*       SUNNY     19   7  58 W3        30.27F
STARK FALLS*     N/A     16 N/A N/A SE7         N/A
WATERTOWN      CLOUDY    21   7  54 S6        30.29F
FT DRUM        CLOUDY    11   2  67 SE10      30.26F WCI  -2
ALBANY         CLOUDY    20   7  57 S8        30.39F
GLENS FALLS    MOSUNNY   18   7  62 CALM      30.37F

$$
NHZ002-005-011-031600-
_____NEW HAMPSHIRE_____


CITY           SKY/WX    TMP DP  RH WIND       PRES   REMARKS
LEBANON        SUNNY     20  -1  40 CALM      30.35F
KEENE          SUNNY     21   1  42 CALM      30.37S
MT WASHINGTON  MOSUNNY    3 -24  27 NW38        N/A  WCI -24
PLYMOUTH       FAIR      21  -1  38 W6        30.33F
WHITEFIELD     SUNNY     16  -8  34 CALM      30.29S

$$

_____REGIONAL QUEBEC LOCATIONS_____


CITY           SKY/WX    TMP DP  RH WIND       PRES   REMARKS
MONTREAL       MOSUNNY   16   3  57 S5        30.33F
QUEBEC CITY    MOSUNNY   10  -8  44 SW10      30.30F WCI  -3
SHERBROOKE     SUNNY     10  -6  48 SW7       30.30S

_____REGIONAL ONTARIO LOCATIONS_____


CITY           SKY/WX    TMP DP  RH WIND       PRES   REMARKS
OTTAWA         PTSUNNY   16   3  57 S9        30.27F

______KEY______
VSB  - VISIBILITY IN MILES
WCI  - WIND CHILL INDEX
HX   - HEAT INDEX
$$
NNNN



USA.gov is the U.S. government's official web portal to all federal, state and local government web resources and services.